Location: Nijmegen RU
(51.8233°N, 354.1314°E)
Time: 10:22:01
(UTC+02:00)

Envisat - Pass Details

Date: 01 March 2019
Orbit: 764 x 766 km, 98.1° (Epoch: 20 October)

Event Time Altitude Azimuth Distance (km) Brightness Sun altitude
Rises 20:58:04 0° 199° (SSW) 3,220 6.3 -18.5°
Reaches altitude 10° 21:00:43 10° 212° (SSW) 2,299 5.7 -18.9°
Maximum altitude 21:04:55 26° 268° (W) 1,485 5.2 -19.5°
Drops below altitude 10° 21:09:09 10° 324° (NW) 2,313 6.2 -20.2°
Sets 21:11:50 0° 338° (NNW) 3,244 6.8 -20.6°
